パンスターズ彗星

C/2016 A1 ( PanSTARRS )

English version
Home page
Updated on February 7, 2017

---------------------------------------------------------------------

・ プロフィール

発見日 2016年1月1日
発見光度 19.3等
発見者 Pan-STARRS 1 telescope (Haleakala)

・ 写真集

・ 軌道要素

Epoch 2017 Nov. 23.0 TT = JDT 2458080.5
T 2017 Nov. 23.35423 TT                                 MPCW
q   5.3279015            (2000.0)            P               Q
z  -0.0003828      Peri.   10.31789     -0.53515833     +0.51118453
 +/-0.0000034      Node   128.17477     +0.70123766     -0.17509560
e   1.0020396      Incl.  121.18554     +0.47103217     +0.84144632
From 106 observations 2016 Jan. 1-Nov. 3, mean residual 0".4.

・ 星図

・ 光度変化

        m1 = 5.5 + 5 logΔ + 10.0 log r

---------------------------------------------------------------------

軌道要素はM.P.E.C. 2016-V116に掲載されたものです。
星図はステラナビゲータ Ver.10 (アストロアーツ) で作成したものです。
光度グラフはComet for Windowsで作成したものです。

---------------------------------------------------------------------

Copyright(C) Seiichi Yoshida (comet@aerith.net). All rights reserved.